Time,TemperatureF,DewpointF,PressureIn,WindDirection,WindDirectionDegrees,WindSpeedMPH,WindSpeedGustMPH,Humidity,HourlyPrecipIn,Conditions,Clouds,dailyrainin,SoftwareType,DateUTC
2013-05-03 00:00:00,53.6,46.2,30.43,WNW,302,0.0,5.8,76,0.00,,OVC030,0.00,VWS V14.00,2013-05-03 04:00:00,
2013-05-03 00:01:00,53.7,46.3,30.43,WNW,302,0.0,0.0,76,0.00,,OVC030,0.00,VWS V14.00,2013-05-03 04:01:00,
2013-05-03 00:02:00,53.9,46.5,30.43,WNW,302,0.0,0.0,76,0.00,,OVC020,0.00,VWS V14.00,2013-05-03 04:02:00,
2013-05-03 00:03:00,53.9,46.3,30.43,NW,314,3.4,3.4,75,0.00,,OVC020,0.00,VWS V14.00,2013-05-03 04:03:00,
2013-05-03 00:08:00,54.4,45.7,30.43,NW,325,0.0,7.1,72,0.00,,OVC020,0.00,VWS V14.00,2013-05-03 04:08:00,
2013-05-03 00:13:00,54.8,45.8,30.44,NW,325,0.0,0.0,72,0.00,,OVC020,0.00,VWS V14.00,2013-05-03 04:13:00,
2013-05-03 00:18:00,55.0,46.0,30.44,NW,325,0.0,0.0,72,0.00,,OVC020,0.00,VWS V14.00,2013-05-03 04:18:00,
2013-05-03 00:23:00,55.1,46.1,30.44,NW,325,0.0,0.0,72,0.00,,OVC020,0.00,VWS V14.00,2013-05-03 04:23:00,
2013-05-03 00:28:00,55.0,45.9,30.44,NW,325,0.0,0.0,71,0.00,,OVC020,0.00,VWS V14.00,2013-05-03 04:28:00,
2013-05-03 00:33:00,54.9,46.1,30.44,NW,325,0.0,0.0,72,0.00,,OVC020,0.00,VWS V14.00,2013-05-03 04:33:00,
2013-05-03 00:39:00,54.8,46.0,30.44,NW,325,0.0,0.0,72,0.00,,OVC020,0.00,VWS V14.00,2013-05-03 04:39:00,
2013-05-03 00:44:00,54.6,46.4,30.44,NNW,345,0.0,3.5,74,0.00,,OVC020,0.00,VWS V14.00,2013-05-03 04:44:00,
2013-05-03 00:49:00,54.5,47.0,30.44,NNW,345,0.0,3.5,76,0.00,,OVC020,0.00,VWS V14.00,2013-05-03 04:49:00,
2013-05-03 00:54:00,54.2,47.1,30.44,North,349,0.0,2.7,77,0.00,,OVC020,0.00,VWS V14.00,2013-05-03 04:54:00,
2013-05-03 00:59:00,53.9,47.5,30.44,West,273,5.1,5.1,79,0.00,,OVC020,0.00,VWS V14.00,2013-05-03 04:59:00,
2013-05-03 01:04:00,53.5,47.2,30.44,NNW,345,0.0,5.3,79,0.00,,OVC030,0.00,VWS V14.00,2013-05-03 05:04:00,
2013-05-03 01:09:00,53.5,47.7,30.44,NNW,345,0.0,5.3,81,0.00,,OVC030,0.00,VWS V14.00,2013-05-03 05:09:00,
2013-05-03 01:14:00,53.4,47.7,30.44,NNW,345,0.0,0.0,81,0.00,,OVC030,0.00,VWS V14.00,2013-05-03 05:14:00,
2013-05-03 01:19:00,53.2,47.9,30.44,West,270,0.0,4.5,82,0.00,,OVC030,0.00,VWS V14.00,2013-05-03 05:19:00,
2013-05-03 01:24:00,53.1,47.9,30.44,West,270,0.0,0.0,82,0.00,,OVC030,0.00,VWS V14.00,2013-05-03 05:24:00,
2013-05-03 01:29:00,52.9,47.8,30.44,West,270,0.0,0.0,83,0.00,,OVC030,0.00,VWS V14.00,2013-05-03 05:29:00,
2013-05-03 01:35:00,52.7,47.7,30.44,West,270,0.0,0.0,83,0.00,,OVC030,0.00,VWS V14.00,2013-05-03 05:35:00,
2013-05-03 01:40:00,52.4,47.7,30.44,West,270,0.0,0.0,84,0.00,,OVC030,0.00,VWS V14.00,2013-05-03 05:40:00,
2013-05-03 01:45:00,52.2,47.7,30.44,West,270,0.0,0.0,85,0.00,,OVC030,0.00,VWS V14.00,2013-05-03 05:45:00,
2013-05-03 01:50:00,52.0,47.6,30.44,West,270,0.0,0.0,85,0.00,,OVC030,0.00,VWS V14.00,2013-05-03 05:50:00,
2013-05-03 01:55:00,51.9,47.5,30.44,West,270,0.0,0.0,85,0.00,,OVC030,0.00,VWS V14.00,2013-05-03 05:55:00,
2013-05-03 02:00:00,51.8,47.4,30.44,West,270,0.0,0.0,85,0.00,,OVC020,0.00,VWS V14.00,2013-05-03 06:00:00,
2013-05-03 02:05:00,51.8,47.4,30.44,West,270,0.0,0.0,85,0.00,,OVC020,0.00,VWS V14.00,2013-05-03 06:05:00,
2013-05-03 02:10:00,51.8,47.5,30.44,West,270,0.0,0.0,85,0.00,,OVC020,0.00,VWS V14.00,2013-05-03 06:10:00,
2013-05-03 02:15:00,51.7,47.5,30.44,West,270,0.0,0.0,86,0.00,,OVC020,0.00,VWS V14.00,2013-05-03 06:15:00,
2013-05-03 02:20:00,51.6,47.5,30.44,West,270,0.0,0.0,86,0.00,,OVC020,0.00,VWS V14.00,2013-05-03 06:20:00,
2013-05-03 02:25:00,51.6,47.6,30.44,West,270,0.0,0.0,86,0.00,,OVC020,0.00,VWS V14.00,2013-05-03 06:25:00,
2013-05-03 02:30:00,51.6,47.6,30.44,West,270,0.0,0.0,86,0.00,,OVC020,0.00,VWS V14.00,2013-05-03 06:30:00,
2013-05-03 02:35:00,51.5,47.5,30.44,West,270,0.0,0.0,86,0.00,,OVC020,0.00,VWS V14.00,2013-05-03 06:35:00,
2013-05-03 02:41:00,51.5,47.5,30.44,West,270,0.0,0.0,86,0.00,,OVC020,0.00,VWS V14.00,2013-05-03 06:41:00,
2013-05-03 02:46:00,51.4,47.3,30.44,West,270,0.0,0.0,86,0.00,,OVC020,0.00,VWS V14.00,2013-05-03 06:46:00,
2013-05-03 02:51:00,51.4,47.1,30.44,West,270,0.0,0.0,85,0.00,,OVC020,0.00,VWS V14.00,2013-05-03 06:51:00,
2013-05-03 02:56:00,51.4,47.0,30.44,West,270,0.0,0.0,85,0.00,,OVC020,0.00,VWS V14.00,2013-05-03 06:56:00,
2013-05-03 03:01:00,51.4,47.0,30.44,West,270,0.0,0.0,85,0.00,,-RA,0.00,VWS V14.00,2013-05-03 07:01:00,
2013-05-03 03:06:00,51.3,47.0,30.44,West,270,0.0,0.0,85,0.00,,-RA,0.00,VWS V14.00,2013-05-03 07:06:00,
2013-05-03 03:11:00,51.2,46.8,30.44,West,270,0.0,0.0,85,0.00,,-RA,0.00,VWS V14.00,2013-05-03 07:11:00,
2013-05-03 03:16:00,51.1,46.7,30.44,West,270,0.0,0.0,85,0.00,,-RA,0.00,VWS V14.00,2013-05-03 07:16:00,
2013-05-03 03:21:00,51.0,46.6,30.44,West,270,0.0,0.0,85,0.00,,-RA,0.00,VWS V14.00,2013-05-03 07:21:00,
2013-05-03 03:27:00,50.9,46.5,30.45,West,270,0.0,0.0,85,0.00,,-RA,0.00,VWS V14.00,2013-05-03 07:27:00,
2013-05-03 03:32:00,50.7,46.3,30.44,West,270,0.0,0.0,85,0.00,,-RA,0.00,VWS V14.00,2013-05-03 07:32:00,
2013-05-03 03:37:00,50.5,46.0,30.45,West,270,0.0,0.0,85,0.00,,-RA,0.00,VWS V14.00,2013-05-03 07:37:00,
2013-05-03 03:42:00,50.3,45.7,30.45,West,270,0.0,0.0,84,0.00,,-RA,0.00,VWS V14.00,2013-05-03 07:42:00,
2013-05-03 03:47:00,49.9,45.3,30.45,West,270,0.0,0.0,84,0.00,,-RA,0.00,VWS V14.00,2013-05-03 07:47:00,
2013-05-03 03:52:00,49.6,44.9,30.45,West,270,0.0,0.0,84,0.00,,-RA,0.00,VWS V14.00,2013-05-03 07:52:00,
2013-05-03 03:57:00,49.3,44.6,30.45,West,270,0.0,0.0,84,0.00,,-RA,0.00,VWS V14.00,2013-05-03 07:57:00,
2013-05-03 04:02:00,49.0,44.3,30.45,West,270,0.0,0.0,84,0.00,,OVC024,0.00,VWS V14.00,2013-05-03 08:02:00,
2013-05-03 04:07:00,48.8,44.0,30.45,West,270,0.0,0.0,83,0.00,,OVC024,0.00,VWS V14.00,2013-05-03 08:07:00,
2013-05-03 04:12:00,48.4,43.7,30.45,West,270,0.0,0.0,84,0.00,,OVC024,0.00,VWS V14.00,2013-05-03 08:12:00,
2013-05-03 04:18:00,48.2,43.4,30.45,West,270,0.0,0.0,83,0.00,,OVC024,0.00,VWS V14.00,2013-05-03 08:18:00,
2013-05-03 04:23:00,47.8,42.7,30.45,West,270,0.0,0.0,82,0.00,,OVC024,0.00,VWS V14.00,2013-05-03 08:23:00,
2013-05-03 04:28:00,47.6,42.3,30.46,West,270,0.0,0.0,82,0.00,,OVC024,0.00,VWS V14.00,2013-05-03 08:28:00,
2013-05-03 04:33:00,47.5,41.9,30.45,West,270,0.0,0.0,81,0.00,,OVC024,0.00,VWS V14.00,2013-05-03 08:33:00,
2013-05-03 04:38:00,47.3,41.3,30.46,West,270,0.0,0.0,80,0.00,,OVC024,0.00,VWS V14.00,2013-05-03 08:38:00,
2013-05-03 04:43:00,47.2,41.0,30.46,West,270,0.0,0.0,79,0.00,,OVC024,0.00,VWS V14.00,2013-05-03 08:43:00,
2013-05-03 04:48:00,47.1,41.0,30.46,West,270,0.0,0.0,79,0.00,,OVC024,0.00,VWS V14.00,2013-05-03 08:48:00,
2013-05-03 04:53:00,47.0,40.9,30.46,West,270,0.0,0.0,79,0.00,,OVC024,0.00,VWS V14.00,2013-05-03 08:53:00,
2013-05-03 04:58:00,46.9,40.6,30.46,West,270,0.0,0.0,79,0.00,,OVC024,0.00,VWS V14.00,2013-05-03 08:58:00,
2013-05-03 05:03:00,46.8,40.5,30.46,West,270,0.0,0.0,79,0.00,,OVC020,0.00,VWS V14.00,2013-05-03 09:03:00,
2013-05-03 05:09:00,46.7,40.5,30.47,West,270,0.0,0.0,79,0.00,,OVC020,0.00,VWS V14.00,2013-05-03 09:09:00,
2013-05-03 05:14:00,46.7,40.6,30.47,West,270,0.0,0.0,79,0.00,,OVC020,0.00,VWS V14.00,2013-05-03 09:14:00,
2013-05-03 05:19:00,46.7,40.5,30.47,West,270,0.0,0.0,79,0.00,,OVC020,0.00,VWS V14.00,2013-05-03 09:19:00,
2013-05-03 05:24:00,46.6,40.2,30.47,West,270,0.0,0.0,78,0.00,,OVC020,0.00,VWS V14.00,2013-05-03 09:24:00,
2013-05-03 05:29:00,46.6,40.2,30.47,West,270,0.0,0.0,78,0.00,,OVC020,0.00,VWS V14.00,2013-05-03 09:29:00,
2013-05-03 05:34:00,46.5,40.2,30.47,West,270,0.0,0.0,78,0.00,,OVC020,0.00,VWS V14.00,2013-05-03 09:34:00,
2013-05-03 05:39:00,46.4,40.1,30.47,West,270,0.0,0.0,78,0.00,,OVC020,0.00,VWS V14.00,2013-05-03 09:39:00,
2013-05-03 05:44:00,46.3,39.9,30.47,West,270,0.0,0.0,78,0.00,,OVC020,0.00,VWS V14.00,2013-05-03 09:44:00,
2013-05-03 05:49:00,46.2,39.7,30.47,West,270,0.0,0.0,78,0.00,,OVC020,0.00,VWS V14.00,2013-05-03 09:49:00,
2013-05-03 05:55:00,46.0,39.6,30.48,West,270,0.0,0.0,78,0.00,,OVC020,0.00,VWS V14.00,2013-05-03 09:55:00,
2013-05-03 06:00:00,46.0,39.8,30.48,West,270,0.0,0.0,79,0.00,,OVC012,0.00,VWS V14.00,2013-05-03 10:00:00,
2013-05-03 06:05:00,45.8,39.6,30.48,West,270,0.0,0.0,79,0.00,,OVC012,0.00,VWS V14.00,2013-05-03 10:05:00,
2013-05-03 06:10:00,45.7,39.7,30.48,West,270,0.0,0.0,79,0.00,,OVC012,0.00,VWS V14.00,2013-05-03 10:10:00,
2013-05-03 06:15:00,45.7,39.9,30.48,West,270,0.0,0.0,80,0.00,,OVC012,0.00,VWS V14.00,2013-05-03 10:15:00,
2013-05-03 06:20:00,45.6,39.8,30.48,West,270,0.0,0.0,80,0.00,,OVC012,0.00,VWS V14.00,2013-05-03 10:20:00,
2013-05-03 06:25:00,45.4,39.6,30.48,West,270,0.0,0.0,80,0.00,,OVC012,0.00,VWS V14.00,2013-05-03 10:25:00,
2013-05-03 06:30:00,45.5,39.8,30.48,West,270,0.0,0.0,80,0.00,,OVC012,0.00,VWS V14.00,2013-05-03 10:30:00,
2013-05-03 06:35:00,45.5,39.8,30.48,West,270,0.0,0.0,80,0.00,,OVC012,0.00,VWS V14.00,2013-05-03 10:35:00,
2013-05-03 06:40:00,45.6,39.9,30.48,West,270,0.0,0.0,80,0.00,,OVC012,0.00,VWS V14.00,2013-05-03 10:40:00,
2013-05-03 06:45:00,45.6,39.8,30.48,West,270,0.0,0.0,80,0.00,,OVC012,0.00,VWS V14.00,2013-05-03 10:45:00,
2013-05-03 06:50:00,45.7,39.9,30.48,West,270,0.0,0.0,80,0.00,,OVC012,0.00,VWS V14.00,2013-05-03 10:50:00,
2013-05-03 06:56:00,45.8,40.0,30.48,West,270,0.0,0.0,80,0.00,,OVC012,0.00,VWS V14.00,2013-05-03 10:56:00,
2013-05-03 07:01:00,46.0,40.0,30.48,West,270,0.0,0.0,80,0.00,,OVC023,0.00,VWS V14.00,2013-05-03 11:01:00,
2013-05-03 07:06:00,46.4,40.3,30.48,West,270,0.0,0.0,79,0.00,,OVC023,0.00,VWS V14.00,2013-05-03 11:06:00,
2013-05-03 07:11:00,46.8,40.5,30.48,West,270,0.0,0.0,79,0.00,,OVC023,0.00,VWS V14.00,2013-05-03 11:11:00,
2013-05-03 07:16:00,46.9,40.8,30.48,West,270,0.0,0.0,79,0.00,,OVC023,0.00,VWS V14.00,2013-05-03 11:16:00,
2013-05-03 07:21:00,47.2,40.9,30.48,West,270,0.0,0.0,79,0.00,,OVC023,0.00,VWS V14.00,2013-05-03 11:21:00,
2013-05-03 07:26:00,47.4,40.9,30.48,West,270,0.0,0.0,78,0.00,,OVC023,0.00,VWS V14.00,2013-05-03 11:26:00,
2013-05-03 07:31:00,47.7,40.9,30.48,West,270,0.0,0.0,77,0.00,,OVC023,0.00,VWS V14.00,2013-05-03 11:31:00,
2013-05-03 07:36:00,47.9,40.4,30.48,West,270,0.0,0.0,75,0.00,,OVC023,0.00,VWS V14.00,2013-05-03 11:36:00,
2013-05-03 07:42:00,48.3,40.7,30.48,West,270,0.0,0.0,75,0.00,,OVC023,0.00,VWS V14.00,2013-05-03 11:42:00,
2013-05-03 07:47:00,48.7,40.5,30.48,West,270,0.0,0.0,73,0.00,,OVC023,0.00,VWS V14.00,2013-05-03 11:47:00,
2013-05-03 07:52:00,49.2,40.7,30.48,West,270,0.0,0.0,72,0.00,,OVC023,0.00,VWS V14.00,2013-05-03 11:52:00,
2013-05-03 07:57:00,49.5,40.2,30.48,North,0,0.0,5.5,70,0.00,,OVC023,0.00,VWS V14.00,2013-05-03 11:57:00,
2013-05-03 08:02:00,50.0,40.1,30.48,North,0,0.0,0.0,68,0.00,,OVC010,0.00,VWS V14.00,2013-05-03 12:02:00,
2013-05-03 08:07:00,50.2,40.1,30.48,NW,319,0.0,3.5,68,0.00,,OVC010,0.00,VWS V14.00,2013-05-03 12:07:00,
2013-05-03 08:12:00,50.5,40.6,30.48,NW,319,0.0,0.0,69,0.00,,OVC010,0.00,VWS V14.00,2013-05-03 12:12:00,
2013-05-03 08:17:00,50.7,39.9,30.48,North,1,0.0,5.5,66,0.00,,OVC010,0.00,VWS V14.00,2013-05-03 12:17:00,
2013-05-03 08:22:00,51.0,40.2,30.48,North,1,0.0,0.0,66,0.00,,OVC010,0.00,VWS V14.00,2013-05-03 12:22:00,
2013-05-03 08:28:00,51.1,40.1,30.48,North,1,0.0,0.0,66,0.00,,OVC010,0.00,VWS V14.00,2013-05-03 12:28:00,
2013-05-03 08:33:00,51.2,38.8,30.49,NE,55,0.0,4.2,62,0.00,,OVC010,0.00,VWS V14.00,2013-05-03 12:33:00,
2013-05-03 08:38:00,51.7,40.2,30.49,NE,55,0.0,4.2,65,0.00,,OVC010,0.00,VWS V14.00,2013-05-03 12:38:00,
2013-05-03 08:43:00,51.8,39.7,30.49,NE,55,0.0,0.0,63,0.00,,OVC010,0.00,VWS V14.00,2013-05-03 12:43:00,
2013-05-03 08:48:00,51.9,40.0,30.49,West,266,0.0,8.4,64,0.00,,OVC010,0.00,VWS V14.00,2013-05-03 12:48:00,
2013-05-03 08:53:00,52.1,39.9,30.49,West,266,0.0,2.0,63,0.00,,OVC010,0.00,VWS V14.00,2013-05-03 12:53:00,
2013-05-03 08:58:00,52.4,39.8,30.49,West,266,0.0,2.0,62,0.00,,OVC010,0.00,VWS V14.00,2013-05-03 12:58:00,
2013-05-03 09:03:00,52.7,40.3,30.49,West,266,0.0,0.0,63,0.00,,OVC150,0.00,VWS V14.00,2013-05-03 13:03:00,
2013-05-03 09:08:00,52.8,39.9,30.48,West,266,0.0,0.0,61,0.00,,OVC150,0.00,VWS V14.00,2013-05-03 13:08:00,
2013-05-03 09:13:00,53.0,39.5,30.49,West,266,0.0,0.0,60,0.00,,OVC150,0.00,VWS V14.00,2013-05-03 13:13:00,
2013-05-03 09:18:00,53.1,39.0,30.49,ENE,63,0.0,7.1,59,0.00,,OVC150,0.00,VWS V14.00,2013-05-03 13:18:00,
2013-05-03 09:24:00,53.3,39.4,30.49,ENE,63,0.0,0.0,59,0.00,,OVC150,0.00,VWS V14.00,2013-05-03 13:24:00,
2013-05-03 09:29:00,53.5,39.8,30.49,SW,221,0.0,5.3,60,0.00,,OVC150,0.00,VWS V14.00,2013-05-03 13:29:00,
2013-05-03 09:34:00,53.7,38.6,30.49,SW,221,0.0,0.0,56,0.00,,OVC150,0.00,VWS V14.00,2013-05-03 13:34:00,
2013-05-03 09:39:00,53.9,38.9,30.48,WNW,291,0.0,4.5,57,0.00,,OVC150,0.00,VWS V14.00,2013-05-03 13:39:00,
2013-05-03 09:44:00,54.1,39.7,30.49,WNW,291,0.0,3.0,58,0.00,,OVC150,0.00,VWS V14.00,2013-05-03 13:44:00,
2013-05-03 09:49:00,54.7,40.6,30.48,WNW,291,0.0,3.0,59,0.00,,OVC150,0.00,VWS V14.00,2013-05-03 13:49:00,
2013-05-03 09:54:00,55.1,39.4,30.48,WNW,291,0.0,0.0,55,0.00,,OVC150,0.00,VWS V14.00,2013-05-03 13:54:00,
2013-05-03 09:59:00,55.3,39.6,30.48,NW,323,0.0,8.3,55,0.00,,OVC150,0.00,VWS V14.00,2013-05-03 13:59:00,
2013-05-03 10:04:00,55.7,40.0,30.48,NW,323,0.0,0.0,55,0.00,,BKN150,0.00,VWS V14.00,2013-05-03 14:04:00,
2013-05-03 10:10:00,56.0,40.6,30.48,NW,323,0.0,0.0,56,0.00,,BKN150,0.00,VWS V14.00,2013-05-03 14:10:00,
2013-05-03 10:15:00,56.5,39.5,30.48,NW,323,0.0,0.0,53,0.00,,BKN150,0.00,VWS V14.00,2013-05-03 14:15:00,
2013-05-03 10:20:00,56.9,39.6,30.48,NW,323,0.0,0.0,52,0.00,,BKN150,0.00,VWS V14.00,2013-05-03 14:20:00,
2013-05-03 10:25:00,56.9,40.5,30.47,NW,323,0.0,0.0,54,0.00,,BKN150,0.00,VWS V14.00,2013-05-03 14:25:00,
2013-05-03 10:30:00,57.0,40.2,30.47,NW,323,0.0,0.0,53,0.00,,BKN150,0.00,VWS V14.00,2013-05-03 14:30:00,
2013-05-03 10:35:00,57.2,40.3,30.47,NW,323,0.0,0.0,53,0.00,,BKN150,0.00,VWS V14.00,2013-05-03 14:35:00,
2013-05-03 10:40:00,57.5,40.0,30.47,WSW,245,0.0,7.0,52,0.00,,BKN150,0.00,VWS V14.00,2013-05-03 14:40:00,
2013-05-03 10:45:00,58.0,40.9,30.48,West,273,0.0,5.3,53,0.00,,BKN150,0.00,VWS V14.00,2013-05-03 14:45:00,
2013-05-03 10:50:00,58.4,41.1,30.47,NNW,328,0.0,0.0,52,0.00,,BKN150,0.00,VWS V14.00,2013-05-03 14:50:00,
2013-05-03 10:55:00,59.0,40.5,30.48,NNW,328,0.0,0.0,50,0.00,,BKN150,0.00,VWS V14.00,2013-05-03 14:55:00,
2013-05-03 11:01:00,59.0,39.8,30.47,NNW,328,0.0,0.0,49,0.00,,BKN150,0.00,VWS V14.00,2013-05-03 15:01:00,
2013-05-03 11:06:00,59.2,41.0,30.47,NNW,328,4.2,4.2,51,0.00,,BKN150,0.00,VWS V14.00,2013-05-03 15:06:00,
2013-05-03 11:11:00,59.5,41.1,30.47,SW,224,0.0,0.0,50,0.00,,BKN150,0.00,VWS V14.00,2013-05-03 15:11:00,
2013-05-03 11:16:00,59.9,41.2,30.47,SW,224,0.0,0.0,50,0.00,,BKN150,0.00,VWS V14.00,2013-05-03 15:16:00,
2013-05-03 11:21:00,60.0,40.4,30.47,SW,224,0.0,0.0,48,0.00,,BKN150,0.00,VWS V14.00,2013-05-03 15:21:00,
2013-05-03 11:26:00,59.9,41.3,30.46,NNE,15,0.0,5.6,50,0.00,,BKN150,0.00,VWS V14.00,2013-05-03 15:26:00,
2013-05-03 11:31:00,60.3,39.9,30.46,NNE,20,0.0,0.0,47,0.00,,BKN150,0.00,VWS V14.00,2013-05-03 15:31:00,
2013-05-03 11:36:00,60.6,39.0,30.46,NNE,20,0.0,0.0,45,0.00,,BKN150,0.00,VWS V14.00,2013-05-03 15:36:00,
2013-05-03 11:41:00,61.0,38.1,30.46,North,354,0.0,0.0,42,0.00,,BKN150,0.00,VWS V14.00,2013-05-03 15:41:00,
2013-05-03 11:47:00,61.0,38.2,30.46,North,354,0.0,0.0,43,0.00,,BKN150,0.00,VWS V14.00,2013-05-03 15:47:00,
2013-05-03 11:52:00,61.5,40.0,30.45,WSW,250,0.0,3.2,45,0.00,,BKN150,0.00,VWS V14.00,2013-05-03 15:52:00,
2013-05-03 11:57:00,61.5,37.9,30.45,WSW,250,0.0,3.2,42,0.00,,BKN150,0.00,VWS V14.00,2013-05-03 15:57:00,
2013-05-03 12:02:00,61.5,40.0,30.45,West,263,0.0,2.9,45,0.00,,OVC150,0.00,VWS V14.00,2013-05-03 16:02:00,
2013-05-03 12:07:00,62.2,39.6,30.44,West,263,0.0,2.9,43,0.00,,OVC150,0.00,VWS V14.00,2013-05-03 16:07:00,
2013-05-03 12:12:00,63.0,39.5,30.44,West,263,0.0,0.0,42,0.00,,OVC150,0.00,VWS V14.00,2013-05-03 16:12:00,
2013-05-03 12:17:00,63.9,40.0,30.44,West,263,0.0,0.0,41,0.00,,OVC150,0.00,VWS V14.00,2013-05-03 16:17:00,
2013-05-03 12:22:00,64.0,39.7,30.44,West,263,0.0,0.0,41,0.00,,OVC150,0.00,VWS V14.00,2013-05-03 16:22:00,
2013-05-03 12:27:00,64.1,42.5,30.44,East,86,0.0,3.2,45,0.00,,OVC150,0.00,VWS V14.00,2013-05-03 16:27:00,
2013-05-03 12:32:00,64.1,41.8,30.44,East,86,0.0,0.0,44,0.00,,OVC150,0.00,VWS V14.00,2013-05-03 16:32:00,
2013-05-03 12:38:00,63.7,44.4,30.43,North,354,0.0,6.8,49,0.00,,OVC150,0.00,VWS V14.00,2013-05-03 16:38:00,
2013-05-03 12:43:00,63.4,44.9,30.43,WSW,257,0.0,5.2,51,0.00,,OVC150,0.00,VWS V14.00,2013-05-03 16:43:00,
2013-05-03 12:48:00,63.6,44.8,30.43,WSW,242,0.0,5.3,50,0.00,,OVC150,0.00,VWS V14.00,2013-05-03 16:48:00,
2013-05-03 12:53:00,64.2,44.1,30.43,WSW,242,0.0,0.0,48,0.00,,OVC150,0.00,VWS V14.00,2013-05-03 16:53:00,
2013-05-03 12:58:00,64.1,43.5,30.43,SW,217,0.0,6.2,47,0.00,,OVC150,0.00,VWS V14.00,2013-05-03 16:58:00,
2013-05-03 13:03:00,63.4,44.9,30.43,SW,217,0.0,0.0,51,0.00,,OVC100,0.00,VWS V14.00,2013-05-03 17:03:00,
2013-05-03 13:08:00,63.4,43.9,30.43,SW,217,0.0,0.0,49,0.00,,OVC100,0.00,VWS V14.00,2013-05-03 17:08:00,
2013-05-03 13:13:00,63.9,43.6,30.43,SW,217,0.0,0.0,48,0.00,,OVC100,0.00,VWS V14.00,2013-05-03 17:13:00,
2013-05-03 13:19:00,64.2,43.7,30.42,SW,217,0.0,0.0,47,0.00,,OVC100,0.00,VWS V14.00,2013-05-03 17:19:00,
2013-05-03 13:24:00,64.8,45.4,30.43,SW,217,0.0,0.0,49,0.00,,OVC100,0.00,VWS V14.00,2013-05-03 17:24:00,
2013-05-03 13:29:00,64.8,44.8,30.42,SW,217,0.0,0.0,48,0.00,,OVC100,0.00,VWS V14.00,2013-05-03 17:29:00,
2013-05-03 13:34:00,64.7,45.1,30.42,South,184,3.3,4.7,49,0.00,,OVC100,0.00,VWS V14.00,2013-05-03 17:34:00,
2013-05-03 13:39:00,64.7,44.7,30.42,SW,232,0.0,5.5,48,0.00,,OVC100,0.00,VWS V14.00,2013-05-03 17:39:00,
2013-05-03 13:44:00,64.9,44.5,30.42,North,352,0.0,5.9,48,0.00,,OVC100,0.00,VWS V14.00,2013-05-03 17:44:00,
2013-05-03 13:49:00,64.7,45.1,30.42,North,352,0.0,5.9,49,0.00,,OVC100,0.00,VWS V14.00,2013-05-03 17:49:00,
2013-05-03 13:54:00,64.3,43.5,30.42,North,352,0.0,0.0,47,0.00,,OVC100,0.00,VWS V14.00,2013-05-03 17:54:00,
2013-05-03 13:59:00,64.1,43.7,30.42,SSE,163,0.0,11.1,47,0.00,,OVC100,0.00,VWS V14.00,2013-05-03 17:59:00,
2013-05-03 14:04:00,64.3,45.1,30.42,SSE,163,0.0,0.0,50,0.00,,-RA,0.00,VWS V14.00,2013-05-03 18:04:00,
2013-05-03 14:09:00,65.0,45.3,30.42,SW,224,0.0,4.5,49,0.00,,-RA,0.00,VWS V14.00,2013-05-03 18:09:00,
2013-05-03 14:14:00,65.3,44.2,30.42,SSW,201,0.0,9.1,46,0.00,,-RA,0.00,VWS V14.00,2013-05-03 18:14:00,
2013-05-03 14:19:00,65.1,43.9,30.41,SSW,201,0.0,9.1,46,0.00,,-RA,0.00,VWS V14.00,2013-05-03 18:19:00,
2013-05-03 14:25:00,65.3,45.3,30.42,West,263,0.0,5.7,48,0.00,,-RA,0.00,VWS V14.00,2013-05-03 18:25:00,
2013-05-03 14:30:00,65.2,44.7,30.41,West,263,0.0,5.7,47,0.00,,-RA,0.00,VWS V14.00,2013-05-03 18:30:00,
2013-05-03 14:35:00,65.2,45.0,30.41,WSW,250,0.0,3.2,48,0.00,,-RA,0.00,VWS V14.00,2013-05-03 18:35:00,
2013-05-03 14:40:00,64.9,43.5,30.41,West,274,0.0,5.4,46,0.00,,-RA,0.00,VWS V14.00,2013-05-03 18:40:00,
2013-05-03 14:45:00,65.2,43.5,30.41,SW,215,0.0,6.2,45,0.00,,-RA,0.00,VWS V14.00,2013-05-03 18:45:00,
2013-05-03 14:50:00,65.5,44.4,30.41,SW,233,0.0,6.2,46,0.00,,-RA,0.00,VWS V14.00,2013-05-03 18:50:00,
2013-05-03 14:55:00,65.7,43.6,30.41,South,188,0.0,5.3,45,0.00,,-RA,0.00,VWS V14.00,2013-05-03 18:55:00,
2013-05-03 15:00:00,65.8,43.1,30.41,South,184,0.0,5.3,44,0.00,,OVC050,0.00,VWS V14.00,2013-05-03 19:00:00,
2013-05-03 15:05:00,66.0,44.4,30.41,SSW,208,5.3,5.3,46,0.00,,OVC050,0.00,VWS V14.00,2013-05-03 19:05:00,
2013-05-03 15:10:00,65.8,44.1,30.41,SW,224,0.0,5.3,45,0.00,,OVC050,0.00,VWS V14.00,2013-05-03 19:10:00,
2013-05-03 15:15:00,65.4,43.7,30.41,South,188,6.5,8.1,45,0.00,,OVC050,0.00,VWS V14.00,2013-05-03 19:15:00,
2013-05-03 15:20:00,64.6,43.8,30.40,WSW,257,0.0,0.0,47,0.00,,OVC050,0.00,VWS V14.00,2013-05-03 19:20:00,
2013-05-03 15:26:00,64.2,44.2,30.40,WSW,248,0.0,7.5,48,0.00,,OVC050,0.00,VWS V14.00,2013-05-03 19:26:00,
2013-05-03 15:31:00,64.7,45.3,30.40,WSW,238,0.0,0.0,49,0.00,,OVC050,0.00,VWS V14.00,2013-05-03 19:31:00,
2013-05-03 15:36:00,64.8,44.8,30.40,SW,222,0.0,6.3,48,0.00,,OVC050,0.00,VWS V14.00,2013-05-03 19:36:00,
2013-05-03 15:41:00,65.0,44.0,30.40,West,260,0.0,0.0,46,0.00,,OVC050,0.00,VWS V14.00,2013-05-03 19:41:00,
2013-05-03 15:46:00,65.1,43.8,30.40,West,260,0.0,0.0,46,0.00,,OVC050,0.00,VWS V14.00,2013-05-03 19:46:00,
2013-05-03 15:51:00,64.4,43.5,30.40,NW,309,0.0,0.0,46,0.00,,OVC050,0.00,VWS V14.00,2013-05-03 19:51:00,
2013-05-03 15:56:00,64.8,44.2,30.39,South,173,0.0,4.2,47,0.00,,OVC050,0.00,VWS V14.00,2013-05-03 19:56:00,
2013-05-03 16:01:00,64.6,43.9,30.39,SSE,165,0.0,4.8,47,0.00,,OVC050,0.00,VWS V14.00,2013-05-03 20:01:00,
2013-05-03 16:06:00,64.4,43.2,30.39,WNW,300,0.0,4.8,46,0.00,,OVC050,0.00,VWS V14.00,2013-05-03 20:06:00,
2013-05-03 16:11:00,64.6,43.9,30.39,South,187,0.0,2.5,47,0.00,,OVC050,0.00,VWS V14.00,2013-05-03 20:11:00,
2013-05-03 16:17:00,64.6,43.8,30.39,South,187,0.0,2.5,47,0.00,,OVC050,0.00,VWS V14.00,2013-05-03 20:17:00,
2013-05-03 16:22:00,64.4,43.0,30.39,South,187,0.0,0.0,46,0.00,,OVC050,0.00,VWS V14.00,2013-05-03 20:22:00,
2013-05-03 16:27:00,64.7,45.3,30.39,South,187,0.0,0.0,49,0.00,,OVC050,0.00,VWS V14.00,2013-05-03 20:27:00,
2013-05-03 16:32:00,64.5,42.6,30.39,West,266,0.0,5.3,45,0.00,,OVC050,0.00,VWS V14.00,2013-05-03 20:32:00,
2013-05-03 16:37:00,64.1,44.2,30.39,SSW,208,0.0,9.3,48,0.00,,OVC050,0.00,VWS V14.00,2013-05-03 20:37:00,
2013-05-03 16:42:00,63.7,42.6,30.38,SSW,208,0.0,0.0,46,0.00,,OVC050,0.00,VWS V14.00,2013-05-03 20:42:00,
2013-05-03 16:47:00,63.7,43.5,30.38,SSW,208,0.0,0.0,48,0.00,,OVC050,0.00,VWS V14.00,2013-05-03 20:47:00,
2013-05-03 16:52:00,63.5,43.3,30.38,West,262,0.0,5.0,48,0.00,,OVC050,0.00,VWS V14.00,2013-05-03 20:52:00,
2013-05-03 16:57:00,63.4,43.8,30.38,West,262,0.0,5.0,49,0.00,,OVC050,0.00,VWS V14.00,2013-05-03 20:57:00,
2013-05-03 17:02:00,63.5,44.5,30.38,West,262,0.0,0.0,50,0.00,,-RA,0.00,VWS V14.00,2013-05-03 21:02:00,
2013-05-03 17:08:00,63.4,43.9,30.38,WNW,294,0.0,3.2,49,0.00,,-RA,0.00,VWS V14.00,2013-05-03 21:08:00,
2013-05-03 17:13:00,63.2,43.5,30.38,WNW,294,0.0,0.0,49,0.00,,-RA,0.00,VWS V14.00,2013-05-03 21:13:00,
2013-05-03 17:18:00,63.3,43.6,30.38,WNW,294,0.0,0.0,48,0.00,,-RA,0.00,VWS V14.00,2013-05-03 21:18:00,
2013-05-03 17:23:00,63.3,43.5,30.38,WNW,294,0.0,0.0,48,0.00,,-RA,0.00,VWS V14.00,2013-05-03 21:23:00,
2013-05-03 17:28:00,63.4,44.5,30.38,WNW,294,0.0,0.0,50,0.00,,-RA,0.00,VWS V14.00,2013-05-03 21:28:00,
2013-05-03 17:33:00,63.4,44.0,30.38,South,191,0.0,0.0,49,0.00,,-RA,0.00,VWS V14.00,2013-05-03 21:33:00,
2013-05-03 17:38:00,63.0,43.5,30.38,South,191,0.0,0.0,49,0.00,,-RA,0.00,VWS V14.00,2013-05-03 21:38:00,
2013-05-03 17:43:00,62.9,43.7,30.38,South,191,0.0,0.0,50,0.00,,-RA,0.00,VWS V14.00,2013-05-03 21:43:00,
2013-05-03 17:48:00,62.7,43.8,30.38,SE,143,0.0,4.5,50,0.00,,-RA,0.00,VWS V14.00,2013-05-03 21:48:00,
2013-05-03 17:53:00,62.5,44.3,30.38,SE,143,0.0,0.0,51,0.00,,-RA,0.00,VWS V14.00,2013-05-03 21:53:00,
2013-05-03 17:58:00,62.2,43.9,30.37,SE,143,0.0,0.0,51,0.00,,-RA,0.00,VWS V14.00,2013-05-03 21:58:00,
2013-05-03 18:04:00,61.9,44.2,30.38,SE,143,0.0,0.0,52,0.00,,OVC140,0.00,VWS V14.00,2013-05-03 22:04:00,
2013-05-03 18:09:00,61.6,44.3,30.38,SE,143,0.0,0.0,53,0.00,,OVC140,0.00,VWS V14.00,2013-05-03 22:09:00,
2013-05-03 18:14:00,61.4,44.0,30.38,SE,143,0.0,0.0,53,0.00,,OVC140,0.00,VWS V14.00,2013-05-03 22:14:00,
2013-05-03 18:19:00,61.2,44.2,30.38,SE,143,0.0,0.0,53,0.00,,OVC140,0.00,VWS V14.00,2013-05-03 22:19:00,
2013-05-03 18:24:00,61.0,45.0,30.37,SE,143,0.0,0.0,56,0.00,,OVC140,0.00,VWS V14.00,2013-05-03 22:24:00,
2013-05-03 18:29:00,60.6,44.5,30.38,SE,143,0.0,0.0,55,0.00,,OVC140,0.00,VWS V14.00,2013-05-03 22:29:00,
2013-05-03 18:34:00,60.4,44.5,30.38,SE,143,0.0,0.0,56,0.00,,OVC140,0.00,VWS V14.00,2013-05-03 22:34:00,
2013-05-03 18:39:00,60.0,43.8,30.38,SE,143,0.0,0.0,55,0.00,,OVC140,0.00,VWS V14.00,2013-05-03 22:39:00,
2013-05-03 18:44:00,59.9,44.6,30.38,West,280,0.0,0.0,57,0.00,,OVC140,0.00,VWS V14.00,2013-05-03 22:44:00,
2013-05-03 18:49:00,59.6,44.5,30.38,West,280,0.0,0.0,57,0.00,,OVC140,0.00,VWS V14.00,2013-05-03 22:49:00,
2013-05-03 18:55:00,59.4,44.5,30.38,West,280,0.0,0.0,58,0.00,,OVC140,0.00,VWS V14.00,2013-05-03 22:55:00,
2013-05-03 19:00:00,59.1,44.8,30.38,West,280,0.0,0.0,59,0.00,,OVC140,0.00,VWS V14.00,2013-05-03 23:00:00,
2013-05-03 19:05:00,58.8,44.4,30.38,West,280,0.0,0.0,59,0.00,,OVC140,0.00,VWS V14.00,2013-05-03 23:05:00,
2013-05-03 19:10:00,58.5,44.3,30.38,West,280,0.0,0.0,59,0.00,,OVC140,0.00,VWS V14.00,2013-05-03 23:10:00,
2013-05-03 19:15:00,58.3,44.2,30.38,West,280,0.0,0.0,59,0.00,,OVC140,0.00,VWS V14.00,2013-05-03 23:15:00,
2013-05-03 19:20:00,58.2,44.1,30.38,West,280,0.0,0.0,59,0.00,,OVC140,0.00,VWS V14.00,2013-05-03 23:20:00,
2013-05-03 19:25:00,58.1,44.2,30.38,West,280,0.0,0.0,60,0.00,,OVC140,0.00,VWS V14.00,2013-05-03 23:25:00,
2013-05-03 19:30:00,57.9,44.2,30.38,West,280,0.0,0.0,60,0.00,,OVC140,0.00,VWS V14.00,2013-05-03 23:30:00,
2013-05-03 19:35:00,57.7,44.1,30.38,West,280,0.0,0.0,60,0.00,,OVC140,0.00,VWS V14.00,2013-05-03 23:35:00,
2013-05-03 19:40:00,57.4,44.5,30.38,West,280,0.0,0.0,62,0.00,,OVC140,0.00,VWS V14.00,2013-05-03 23:40:00,
2013-05-03 19:45:00,57.0,44.3,30.38,West,280,0.0,0.0,62,0.00,,OVC140,0.00,VWS V14.00,2013-05-03 23:45:00,
2013-05-03 19:50:00,56.7,44.0,30.39,West,280,0.0,0.0,62,0.00,,OVC140,0.00,VWS V14.00,2013-05-03 23:50:00,
2013-05-03 19:56:00,56.4,44.2,30.38,West,280,0.0,0.0,64,0.00,,OVC140,0.00,VWS V14.00,2013-05-03 23:56:00,
2013-05-03 20:01:00,56.0,44.2,30.38,West,280,0.0,0.0,65,0.00,,BKN150,0.00,VWS V14.00,2013-05-04 00:01:00,
2013-05-03 20:06:00,55.5,44.0,30.39,West,280,0.0,0.0,65,0.00,,BKN150,0.00,VWS V14.00,2013-05-04 00:06:00,
2013-05-03 20:11:00,55.1,44.0,30.39,West,280,0.0,0.0,66,0.00,,BKN150,0.00,VWS V14.00,2013-05-04 00:11:00,
2013-05-03 20:16:00,54.7,44.0,30.39,West,280,0.0,0.0,67,0.00,,BKN150,0.00,VWS V14.00,2013-05-04 00:16:00,
2013-05-03 20:21:00,54.4,44.1,30.39,West,280,0.0,0.0,68,0.00,,BKN150,0.00,VWS V14.00,2013-05-04 00:21:00,
2013-05-03 20:26:00,54.1,44.0,30.39,West,280,0.0,0.0,69,0.00,,BKN150,0.00,VWS V14.00,2013-05-04 00:26:00,
2013-05-03 20:31:00,53.8,44.0,30.40,West,280,0.0,0.0,69,0.00,,BKN150,0.00,VWS V14.00,2013-05-04 00:31:00,
2013-05-03 20:36:00,53.6,44.1,30.40,West,280,0.0,0.0,70,0.00,,BKN150,0.00,VWS V14.00,2013-05-04 00:36:00,
2013-05-03 20:41:00,53.3,44.3,30.40,West,280,0.0,0.0,71,0.00,,BKN150,0.00,VWS V14.00,2013-05-04 00:41:00,
2013-05-03 20:47:00,53.0,44.3,30.40,West,280,0.0,0.0,72,0.00,,BKN150,0.00,VWS V14.00,2013-05-04 00:47:00,
2013-05-03 20:52:00,52.7,44.2,30.40,West,280,0.0,0.0,73,0.00,,BKN150,0.00,VWS V14.00,2013-05-04 00:52:00,
2013-05-03 20:57:00,52.4,44.2,30.41,West,280,0.0,0.0,74,0.00,,BKN150,0.00,VWS V14.00,2013-05-04 00:57:00,
2013-05-03 21:02:00,52.2,44.3,30.41,West,280,0.0,0.0,74,0.00,,BKN150,0.00,VWS V14.00,2013-05-04 01:02:00,
2013-05-03 21:07:00,52.0,44.4,30.41,West,280,0.0,0.0,75,0.00,,BKN150,0.00,VWS V14.00,2013-05-04 01:07:00,
2013-05-03 21:12:00,51.8,44.5,30.41,West,280,0.0,0.0,76,0.00,,BKN150,0.00,VWS V14.00,2013-05-04 01:12:00,
2013-05-03 21:17:00,51.5,44.6,30.41,West,280,0.0,0.0,77,0.00,,BKN150,0.00,VWS V14.00,2013-05-04 01:17:00,
2013-05-03 21:22:00,51.2,44.5,30.41,West,280,0.0,0.0,78,0.00,,BKN150,0.00,VWS V14.00,2013-05-04 01:22:00,
2013-05-03 21:27:00,51.2,44.8,30.41,West,280,0.0,0.0,78,0.00,,BKN150,0.00,VWS V14.00,2013-05-04 01:27:00,
2013-05-03 21:33:00,50.9,44.7,30.41,West,280,0.0,0.0,79,0.00,,BKN150,0.00,VWS V14.00,2013-05-04 01:33:00,
2013-05-03 21:38:00,50.7,44.7,30.41,West,280,0.0,0.0,80,0.00,,BKN150,0.00,VWS V14.00,2013-05-04 01:38:00,
2013-05-03 21:43:00,50.4,44.6,30.41,West,280,0.0,0.0,80,0.00,,BKN150,0.00,VWS V14.00,2013-05-04 01:43:00,
2013-05-03 21:48:00,50.1,44.6,30.41,West,280,0.0,0.0,81,0.00,,BKN150,0.00,VWS V14.00,2013-05-04 01:48:00,
2013-05-03 21:53:00,49.9,44.6,30.41,West,280,0.0,0.0,82,0.00,,BKN150,0.00,VWS V14.00,2013-05-04 01:53:00,
2013-05-03 21:58:00,49.7,44.7,30.41,West,280,0.0,0.0,83,0.00,,BKN150,0.00,VWS V14.00,2013-05-04 01:58:00,
2013-05-03 22:03:00,49.5,44.7,30.41,West,280,0.0,0.0,83,0.00,,-RA,0.00,VWS V14.00,2013-05-04 02:03:00,
2013-05-03 22:08:00,49.2,44.6,30.41,West,280,0.0,0.0,84,0.00,,-RA,0.00,VWS V14.00,2013-05-04 02:08:00,
2013-05-03 22:13:00,49.0,44.6,30.41,West,280,0.0,0.0,85,0.00,,-RA,0.00,VWS V14.00,2013-05-04 02:13:00,
2013-05-03 22:18:00,48.7,44.5,30.41,West,280,0.0,0.0,85,0.00,,-RA,0.00,VWS V14.00,2013-05-04 02:18:00,
2013-05-03 22:23:00,48.6,44.5,30.41,West,280,0.0,0.0,86,0.00,,-RA,0.00,VWS V14.00,2013-05-04 02:23:00,
2013-05-03 22:28:00,48.3,44.3,30.41,West,280,0.0,0.0,86,0.00,,-RA,0.00,VWS V14.00,2013-05-04 02:28:00,
2013-05-03 22:34:00,48.1,44.3,30.41,West,280,0.0,0.0,86,0.00,,-RA,0.00,VWS V14.00,2013-05-04 02:34:00,
2013-05-03 22:39:00,47.9,44.2,30.41,West,280,0.0,0.0,87,0.00,,-RA,0.00,VWS V14.00,2013-05-04 02:39:00,
2013-05-03 22:44:00,47.7,44.2,30.41,West,280,0.0,0.0,87,0.00,,-RA,0.00,VWS V14.00,2013-05-04 02:44:00,
2013-05-03 22:49:00,47.5,44.1,30.41,West,280,0.0,0.0,88,0.00,,-RA,0.00,VWS V14.00,2013-05-04 02:49:00,
2013-05-03 22:54:00,47.4,44.1,30.41,West,280,0.0,0.0,88,0.00,,-RA,0.00,VWS V14.00,2013-05-04 02:54:00,
2013-05-03 22:59:00,47.2,44.0,30.41,West,280,0.0,0.0,89,0.00,,-RA,0.00,VWS V14.00,2013-05-04 02:59:00,
2013-05-03 23:04:00,47.1,44.1,30.41,West,280,0.0,0.0,89,0.00,,SHRA,0.00,VWS V14.00,2013-05-04 03:04:00,
2013-05-03 23:09:00,46.9,44.0,30.41,West,280,0.0,0.0,90,0.00,,SHRA,0.00,VWS V14.00,2013-05-04 03:09:00,
2013-05-03 23:14:00,46.7,43.9,30.41,West,280,0.0,0.0,90,0.00,,SHRA,0.00,VWS V14.00,2013-05-04 03:14:00,
2013-05-03 23:19:00,46.6,43.9,30.41,West,280,0.0,0.0,90,0.00,,SHRA,0.00,VWS V14.00,2013-05-04 03:19:00,
2013-05-03 23:24:00,46.3,43.7,30.41,West,280,0.0,0.0,90,0.00,,SHRA,0.00,VWS V14.00,2013-05-04 03:24:00,
2013-05-03 23:30:00,46.2,43.6,30.41,West,280,0.0,0.0,91,0.00,,SHRA,0.00,VWS V14.00,2013-05-04 03:30:00,
2013-05-03 23:35:00,46.0,43.5,30.41,West,280,0.0,0.0,91,0.00,,SHRA,0.00,VWS V14.00,2013-05-04 03:35:00,
2013-05-03 23:40:00,45.8,43.3,30.40,West,280,0.0,0.0,91,0.00,,SHRA,0.00,VWS V14.00,2013-05-04 03:40:00,
2013-05-03 23:45:00,45.7,43.3,30.40,West,280,0.0,0.0,91,0.00,,SHRA,0.00,VWS V14.00,2013-05-04 03:45:00,
2013-05-03 23:50:00,45.5,43.1,30.40,West,280,0.0,0.0,91,0.00,,SHRA,0.00,VWS V14.00,2013-05-04 03:50:00,
2013-05-03 23:55:00,45.3,43.0,30.40,West,280,0.0,0.0,91,0.00,,SHRA,0.00,VWS V14.00,2013-05-04 03:55:00,